Radiation Dose at Monitoring Post of Fukushima Daini Nuclear Power Station
Date,Time,MP-1(microSv/h),MP-2(microSv/h),MP-3(microSv/h),MP-4(microSv/h),MP-5(microSv/h),MP-6(microSv/h),MP-7(microSv/h),Wind Direction,Wind Velocity(m/s),Rain
2016/08/25,00:00,0.392,0.235,0.405,0.374,0.362,0.191,0.162,south-southwest,5.7,No
2016/08/25,00:10,0.392,0.234,0.412,0.377,0.360,0.192,0.162,south-southwest,5.7,No
2016/08/25,00:20,0.396,0.237,0.412,0.376,0.363,0.191,0.160,south-southwest,5.5,No
2016/08/25,00:30,0.393,0.235,0.406,0.373,0.361,0.192,0.162,south-southwest,5.3,No
2016/08/25,00:40,0.391,0.235,0.410,0.378,0.359,0.192,0.162,south,4.4,No
2016/08/25,00:50,0.394,0.236,0.413,0.376,0.362,0.193,0.161,south,3.4,No
2016/08/25,01:00,0.394,0.235,0.408,0.373,0.361,0.190,0.163,south,2.7,No
2016/08/25,01:10,0.393,0.234,0.408,0.377,0.359,0.192,0.162,south,2.7,No
2016/08/25,01:20,0.396,0.238,0.412,0.376,0.364,0.191,0.161,south-southwest,3.0,No
2016/08/25,01:30,0.393,0.235,0.411,0.374,0.363,0.192,0.162,south,2.2,No
2016/08/25,01:40,0.393,0.235,0.407,0.377,0.359,0.193,0.162,south,4.2,No
2016/08/25,01:50,0.395,0.237,0.414,0.376,0.364,0.191,0.161,south,3.6,No
2016/08/25,02:00,0.393,0.235,0.409,0.372,0.362,0.191,0.162,south,3.5,No
2016/08/25,02:10,0.392,0.236,0.409,0.377,0.360,0.193,0.163,south,4.6,No
2016/08/25,02:20,0.398,0.235,0.414,0.376,0.363,0.191,0.163,south,6.0,No
2016/08/25,02:30,0.393,0.234,0.409,0.374,0.361,0.192,0.163,south,5.6,No
2016/08/25,02:40,0.393,0.236,0.408,0.376,0.360,0.193,0.162,south,5.8,No
2016/08/25,02:50,0.393,0.233,0.413,0.377,0.363,0.193,0.162,south,6.5,No
2016/08/25,03:00,0.394,0.236,0.412,0.373,0.362,0.193,0.164,south,6.4,No
2016/08/25,03:10,0.393,0.236,0.408,0.376,0.361,0.193,0.163,south,6.7,No
2016/08/25,03:20,0.394,0.235,0.412,0.375,0.364,0.192,0.163,south,8.0,No
2016/08/25,03:30,0.395,0.236,0.410,0.374,0.361,0.193,0.164,south,7.2,No
2016/08/25,03:40,0.390,0.237,0.407,0.376,0.359,0.192,0.161,south-southwest,8.1,No
2016/08/25,03:50,0.396,0.234,0.411,0.376,0.364,0.192,0.162,south-southwest,7.8,No
2016/08/25,04:00,0.394,0.236,0.413,0.373,0.362,0.191,0.165,south-southwest,7.6,No
2016/08/25,04:10,0.391,0.236,0.409,0.377,0.360,0.193,0.162,south-southwest,8.2,No
2016/08/25,04:20,0.395,0.235,0.409,0.378,0.364,0.192,0.162,south-southwest,9.1,No
2016/08/25,04:30,0.393,0.235,0.412,0.373,0.362,0.193,0.164,south-southwest,8.2,No
2016/08/25,04:40,0.392,0.235,0.408,0.377,0.360,0.191,0.162,south-southwest,6.9,No
2016/08/25,04:50,0.396,0.234,0.409,0.376,0.364,0.191,0.163,south,5.3,No
2016/08/25,05:00,0.393,0.236,0.413,0.374,0.361,0.192,0.163,south,5.6,No
2016/08/25,05:10,0.391,0.235,0.409,0.375,0.358,0.193,0.161,south-southwest,7.8,No
2016/08/25,05:20,0.395,0.234,0.408,0.376,0.364,0.192,0.162,south,7.0,No
2016/08/25,05:30,0.394,0.236,0.412,0.374,0.362,0.192,0.163,south-southwest,5.6,No
2016/08/25,05:40,0.392,0.235,0.410,0.374,0.359,0.192,0.161,south-southwest,4.9,No
2016/08/25,05:50,0.396,0.235,0.407,0.378,0.364,0.191,0.162,south-southwest,3.0,No
2016/08/25,06:00,0.396,0.235,0.413,0.374,0.362,0.192,0.162,south-southwest,3.1,No
2016/08/25,06:10,0.390,0.233,0.411,0.374,0.358,0.193,0.163,south-southwest,3.5,No
2016/08/25,06:20,0.395,0.234,0.407,0.376,0.361,0.191,0.161,south-southwest,4.7,No
2016/08/25,06:30,0.394,0.235,0.412,0.375,0.363,0.192,0.161,south-southwest,3.6,No
2016/08/25,06:40,0.392,0.234,0.410,0.373,0.360,0.192,0.161,south-southwest,2.7,No
2016/08/25,06:50,0.392,0.234,0.407,0.376,0.358,0.191,0.161,south-southwest,2.5,No
2016/08/25,07:00,0.396,0.236,0.405,0.377,0.360,0.191,0.160,south-southwest,2.8,No
2016/08/25,07:10,0.393,0.235,0.405,0.375,0.364,0.192,0.160,south,3.4,No
2016/08/25,07:20,0.391,0.234,0.407,0.372,0.361,0.192,0.161,south,3.3,No
2016/08/25,07:30,0.396,0.234,0.412,0.372,0.360,0.192,0.161,south,5.1,No
2016/08/25,07:40,0.395,0.233,0.413,0.371,0.358,0.192,0.162,south,4.7,No
2016/08/25,07:50,0.392,0.233,0.411,0.373,0.362,0.192,0.162,south,5.8,No
2016/08/25,08:00,0.391,0.235,0.409,0.375,0.364,0.192,0.163,south,6.3,No
2016/08/25,08:10,0.392,0.234,0.406,0.376,0.362,0.192,0.163,south,6.7,No
2016/08/25,08:20,0.397,0.235,0.411,0.375,0.361,0.191,0.163,south,6.4,No
2016/08/25,08:30,0.396,0.235,0.413,0.376,0.360,0.194,0.163,south,7.3,No
2016/08/25,08:40,0.394,0.236,0.412,0.377,0.358,0.193,0.162,south,7.3,No
2016/08/25,08:50,0.394,0.236,0.411,0.377,0.361,0.193,0.163,south,7.2,No
2016/08/25,09:00,0.394,0.236,0.408,0.378,0.358,0.192,0.162,south,6.4,No
2016/08/25,09:10,0.394,0.237,0.407,0.376,0.362,0.193,0.163,south-southeast,7.0,No
2016/08/25,09:20,0.394,0.235,0.410,0.377,0.361,0.192,0.163,south,8.3,No
2016/08/25,09:30,0.395,0.236,0.415,0.378,0.361,0.192,0.162,south,9.1,No
2016/08/25,09:40,0.395,0.236,0.412,0.378,0.362,0.193,0.162,south,8.9,No
2016/08/25,09:50,0.394,0.236,0.409,0.378,0.362,0.193,0.162,south,10.2,No
2016/08/25,10:00,0.394,0.235,0.409,0.379,0.360,0.193,0.163,south,9.5,No
2016/08/25,10:10,0.392,0.234,0.408,0.379,0.362,0.193,0.163,-,-,No
2016/08/25,10:20,0.393,0.236,0.407,0.379,0.362,0.193,0.163,-,-,No
2016/08/25,10:30,0.393,0.236,0.409,0.378,0.362,0.192,0.163,-,-,No
2016/08/25,10:40,0.395,0.236,0.407,0.378,0.362,0.193,0.164,-,-,No
2016/08/25,10:50,0.393,0.235,0.410,0.377,0.362,0.193,0.163,-,-,No
2016/08/25,11:00,0.396,0.235,0.410,0.379,0.363,0.193,0.163,-,-,No
2016/08/25,11:10,0.397,0.236,0.413,0.380,0.365,0.193,0.164,-,-,No
2016/08/25,11:20,0.397,0.235,0.412,0.379,0.362,0.194,0.163,-,-,No
2016/08/25,11:30,0.396,0.235,0.413,0.379,0.362,0.193,0.163,-,-,No
2016/08/25,11:40,0.397,0.236,0.413,0.379,0.364,0.194,0.163,-,-,No
2016/08/25,11:50,0.397,0.237,0.415,0.380,0.364,0.194,0.164,-,-,No
2016/08/25,12:00,0.394,0.236,0.415,0.380,0.364,0.194,0.163,-,-,No
2016/08/25,12:10,0.396,0.238,0.415,0.378,0.364,0.194,0.164,-,-,No
2016/08/25,12:20,0.395,0.237,0.416,0.380,0.364,0.194,0.165,-,-,No
2016/08/25,12:30,0.397,0.237,0.416,0.379,0.363,0.193,0.164,-,-,No
2016/08/25,12:40,0.396,0.237,0.415,0.379,0.363,0.193,0.164,-,-,No
2016/08/25,12:50,0.395,0.237,0.414,0.379,0.362,0.193,0.163,-,-,No
2016/08/25,13:00,0.396,0.238,0.415,0.379,0.363,0.193,0.164,-,-,No
2016/08/25,13:10,0.395,0.237,0.414,0.379,0.363,0.193,0.163,-,-,No
2016/08/25,13:20,0.395,0.237,0.414,0.380,0.364,0.193,0.163,-,-,No
2016/08/25,13:30,0.396,0.237,0.413,0.378,0.364,0.194,0.163,-,-,No
2016/08/25,13:40,0.397,0.237,0.412,0.379,0.363,0.194,0.164,-,-,No
2016/08/25,13:50,0.396,0.236,0.412,0.380,0.364,0.194,0.164,-,-,No
2016/08/25,14:00,0.396,0.235,0.414,0.379,0.364,0.194,0.163,-,-,No
2016/08/25,14:10,0.397,0.236,0.415,0.379,0.364,0.194,0.164,-,-,No
2016/08/25,14:20,0.395,0.236,0.415,0.380,0.364,0.194,0.164,-,-,No
2016/08/25,14:30,0.395,0.236,0.413,0.378,0.365,0.194,0.165,-,-,No
2016/08/25,14:40,0.395,0.235,0.413,0.379,0.365,0.194,0.164,-,-,No
2016/08/25,14:50,0.394,0.236,0.413,0.378,0.363,0.193,0.164,-,-,No
2016/08/25,15:00,0.395,0.236,0.411,0.378,0.364,0.193,0.164,-,-,No
2016/08/25,15:10,0.394,0.235,0.411,0.376,0.362,0.192,0.164,-,-,No
2016/08/25,15:20,0.394,0.235,0.411,0.377,0.363,0.193,0.164,-,-,No
2016/08/25,15:30,0.394,0.235,0.411,0.377,0.364,0.194,0.163,-,-,No
2016/08/25,15:40,0.395,0.235,0.412,0.375,0.362,0.194,0.164,south,11.8,No
2016/08/25,15:50,0.395,0.235,0.411,0.377,0.364,0.194,0.163,south,11.1,No
2016/08/25,16:00,0.393,0.235,0.411,0.376,0.364,0.194,0.163,south,13.1,No
2016/08/25,16:10,0.394,0.235,0.409,0.380,0.362,0.194,0.166,south,12.9,No
2016/08/25,16:20,0.394,0.235,0.412,0.381,0.364,0.193,0.165,south,13.3,No
2016/08/25,16:30,0.398,0.235,0.412,0.381,0.363,0.193,0.165,south,13.6,No
2016/08/25,16:40,0.401,0.236,0.418,0.380,0.363,0.194,0.163,south,12.3,No
2016/08/25,16:50,0.398,0.239,0.417,0.377,0.364,0.193,0.164,south,11.4,No
2016/08/25,17:00,0.396,0.237,0.414,0.377,0.364,0.194,0.165,south,11.2,No
2016/08/25,17:10,0.395,0.237,0.413,0.382,0.364,0.194,0.165,south,11.5,No
2016/08/25,17:20,0.393,0.237,0.410,0.383,0.361,0.194,0.164,south-southwest,12.1,No
2016/08/25,17:30,0.399,0.235,0.415,0.380,0.362,0.194,0.163,south,11.1,No
2016/08/25,17:40,0.399,0.238,0.417,0.378,0.362,0.195,0.165,south,11.6,No
2016/08/25,17:50,0.395,0.238,0.414,0.379,0.368,0.194,0.165,south,11.5,No
2016/08/25,18:00,0.393,0.236,0.413,0.382,0.368,0.194,0.164,south,11.9,No
2016/08/25,18:10,0.394,0.237,0.413,0.383,0.365,0.195,0.163,south,11.2,No
2016/08/25,18:20,0.400,0.238,0.417,0.380,0.362,0.195,0.165,south,11.8,No
2016/08/25,18:30,0.397,0.237,0.419,0.378,0.364,0.194,0.165,south,11.4,No
2016/08/25,18:40,0.396,0.237,0.414,0.384,0.367,0.194,0.165,south,10.5,No
2016/08/25,18:50,0.394,0.235,0.411,0.381,0.366,0.195,0.164,south,10.4,No
2016/08/25,19:00,0.399,0.239,0.417,0.378,0.362,0.195,0.165,south,11.0,No
2016/08/25,19:10,0.398,0.238,0.417,0.379,0.364,0.195,0.165,south-southwest,10.1,No
2016/08/25,19:20,0.394,0.236,0.414,0.382,0.365,0.195,0.163,south-southwest,10.4,No
2016/08/25,19:30,0.393,0.238,0.412,0.382,0.364,0.194,0.164,south-southwest,10.8,No
2016/08/25,19:40,0.401,0.238,0.415,0.378,0.361,0.195,0.166,south,10.0,No
2016/08/25,19:50,0.398,0.237,0.417,0.379,0.367,0.194,0.164,south-southwest,11.0,No
2016/08/25,20:00,0.395,0.236,0.415,0.384,0.367,0.194,0.163,south-southwest,10.7,No
2016/08/25,20:10,0.395,0.239,0.413,0.381,0.362,0.195,0.164,south-southwest,10.1,No
2016/08/25,20:20,0.400,0.237,0.415,0.379,0.363,0.195,0.164,south-southwest,10.6,No
2016/08/25,20:30,0.398,0.236,0.419,0.379,0.366,0.194,0.164,south-southwest,10.2,No
2016/08/25,20:40,0.395,0.238,0.415,0.383,0.365,0.193,0.163,south-southwest,10.2,No
2016/08/25,20:50,0.396,0.238,0.411,0.380,0.362,0.195,0.164,south-southwest,11.2,No
2016/08/25,21:00,0.401,0.237,0.418,0.378,0.366,0.193,0.165,south-southwest,11.6,No
2016/08/25,21:10,0.398,0.236,0.417,0.379,0.366,0.193,0.163,south-southwest,11.8,No
2016/08/25,21:20,0.393,0.238,0.414,0.383,0.362,0.194,0.164,south-southwest,10.9,No
2016/08/25,21:30,0.396,0.237,0.412,0.380,0.362,0.196,0.165,south-southwest,11.2,No
2016/08/25,21:40,0.401,0.236,0.419,0.378,0.368,0.194,0.164,south-southwest,10.9,No
2016/08/25,21:50,0.396,0.237,0.418,0.383,0.366,0.194,0.163,south-southwest,11.9,No
2016/08/25,22:00,0.395,0.237,0.413,0.382,0.362,0.195,0.164,south-southwest,10.3,No
2016/08/25,22:10,0.397,0.236,0.414,0.379,0.363,0.195,0.166,south-southwest,10.7,No
2016/08/25,22:20,0.401,0.238,0.419,0.378,0.367,0.194,0.165,south-southwest,10.1,No
2016/08/25,22:30,0.396,0.237,0.417,0.383,0.364,0.194,0.163,south-southwest,9.5,No
2016/08/25,22:40,0.394,0.236,0.414,0.382,0.362,0.195,0.164,south-southwest,8.9,No
2016/08/25,22:50,0.400,0.237,0.414,0.379,0.367,0.195,0.166,south-southwest,7.5,No
2016/08/25,23:00,0.398,0.238,0.418,0.379,0.365,0.194,0.164,south-southwest,9.6,No
2016/08/25,23:10,0.395,0.238,0.417,0.384,0.362,0.194,0.165,south-southwest,9.0,No
2016/08/25,23:20,0.395,0.236,0.413,0.381,0.364,0.195,0.165,south-southwest,9.2,No
2016/08/25,23:30,0.400,0.240,0.414,0.376,0.366,0.195,0.164,south-southwest,7.8,No
2016/08/25,23:40,0.398,0.236,0.417,0.380,0.363,0.194,0.164,south-southwest,7.9,No
2016/08/25,23:50,0.394,0.237,0.415,0.382,0.362,0.195,0.166,south-southwest,7.0,No
